Regional Weather Roundup
Issued by NWS Goodland, KS

Home | Current Version | Previous Version | Graphics & Text | Print | Product List | Glossary On
Versions: 1 2 3 4 5 6 7 8 9 10 11 12 13 14 15 16 17 18 19 20 21 22 23 24 25 26 27 28 29 30 31 32 33 34 35 36 37 38 39 40 41 42 43 44 45 46 47 48 49 50
000
ASUS43 KGLD 011208
RWRGLD

GOODLAND FORECAST AREA HOURLY WEATHER ROUNDUP
NATIONAL WEATHER SERVICE GOODLAND KS
600 AM MDT WED OCT 01 2014

...OFFICIAL OBSERVATIONS...

CITY           SKY/WX    TMP DP  RH WIND       PRES   REMARKS
GOODLAND KS    CLEAR     47  43  86 NW5       29.84R
HILL CITY KS   FOG       60  60 100 CALM      29.75R VSB 1/4
IMPERIAL NEB   CLEAR     50  44  80 NW7       29.81R
MCCOOK NEB     CLEAR     48  46  93 W3        29.77R
AKRON CO       CLEAR     45  40  82 W6        29.86R
BURLINGTON CO  CLEAR     47  42  83 NW8       29.85R
LIMON CO       PTCLDY    40  37  89 SW3       29.91R
$$

...UNOFFICIAL OBSERVATIONS...

CITY           SKY/WX    TMP DP  RH WIND       PRES   REMARKS
COLBY KS       CLEAR     52  48  87 NW10      29.80R
GOVE KS          N/A     50  32  50 MISG        N/A
NORTON KS      FOG       59  57  94 N3        29.75  VSB 1/2
SHARON SPRINGS   N/A     50  45  84 N8          N/A
TRENTON NEB      N/A     51  32  48 NW9         N/A
KIT CARSON CO    N/A     50  42  72 MISG        N/A
YUMA CO          N/A     45  41  85 CALM        N/A
$$



USA.gov is the U.S. government's official web portal to all federal, state and local government web resources and services.